#timestamp,LO_Frequency,Hit,StdDev 
1637402415.3,286046997.0,P
1637402435.1,286047001.1,N
1637402455.9,286046999.0,N
1637402475.7,286046996.5,N
1637402495.5,286046998.3,N
1637402515.4,286047000.7,N
1637402535.2,286047000.7,N
1637402555.0,286046999.0,N
1637402555.9,286046999.0,N
1637402575.8,286046998.9,N
1637402595.6,286046997.1,N
1637402615.5,286046999.1,N
1637402635.3,286046998.7,N
1637402655.1,286046998.4,N
1637402675.9,286047001.2,N
1637402695.7,286047000.8,N
1637402715.5,286046996.6,N
1637402735.4,286046998.4,N
1637402755.2,286046995.1,Y
1637402775.1,286046997.2,P
1637402776.0,286046997.2,P
1637402795.8,286046999.2,N
1637402815.6,286046997.3,N
1637402835.5,286046995.1,Y
1637402855.3,286046998.7,P
1637402875.2,286046996.8,P
1637402895.9,286046997.8,N
1637402915.7,286046999.5,N
1637402935.6,286046997.4,N
1637402955.4,286046996.7,Y
1637402975.3,286046998.3,P
1637402995.1,286046998.6,P
1637402996.0,286046998.6,P
1637403015.8,286047000.0,N
1637403035.7,286046998.7,N
1637403055.5,286046998.2,N
1637403075.4,286046998.9,N
1637403095.2,286046998.5,N
1637403115.0,286046998.2,Y
1637403115.9,286046998.2,P
1637403135.8,286046999.9,N
1637403155.6,286046999.7,N
1637403175.4,286047000.7,N
1637403195.3,286046998.2,N
1637403215.1,286046998.6,N
1637403235.9,286046998.3,N
1637403255.7,286047001.1,N
1637403275.5,286046998.8,N
1637403295.4,286046999.5,N
1637403315.2,286046997.8,N
1637403335.0,286046997.8,N
1637403335.9,286046997.8,N
1637403355.8,286046996.8,Y
1637403375.6,286046999.0,P
1637403395.5,286046998.3,P
1637403415.3,286047001.2,P
1637403435.1,286046999.3,N
1637403455.9,286046999.0,N
1637403475.7,286046996.6,Y
1637403495.6,286047000.4,P
1637403515.4,286047000.5,N
1637403535.2,286047001.2,N
1637403555.1,286046999.7,N
1637403556.0,286046999.7,N
1637403575.8,286046998.5,N
1637403595.6,286046999.5,N
1637403615.5,286046999.4,N
1637403635.3,286046998.1,N
1637403655.1,286047001.1,N
1637403675.9,286046998.1,N
1637403695.7,286047000.9,N
1637403715.6,286047000.5,N
1637403735.4,286046998.7,N
1637403755.2,286046999.0,N
1637403775.1,286046999.0,N
1637403776.0,286046999.0,N
1637403795.8,286046996.6,Y
1637403815.7,286047001.2,P
1637403835.5,286047000.6,N
1637403855.3,286046998.2,N
1637403875.2,286046998.2,N
1637403895.0,286046998.8,N
1637403895.9,286046998.8,N
1637403915.7,286046999.6,N
1637403935.6,286046999.3,N
1637403955.4,286046996.9,Y
1637403975.3,286046998.6,P
1637403995.1,286047000.0,N
1637404015.8,286046999.9,N
1637404035.7,286047000.8,N
1637404055.5,286046998.8,N
1637404075.4,286046998.7,N
1637404095.2,286046996.6,Y
1637404115.0,286046998.7,P
1637404115.9,286046998.7,P
1637404135.8,286046997.1,P
1637404155.6,286046997.8,N
1637404175.5,286046995.2,Y
1637404195.3,286046999.4,P
1637404215.1,286046996.7,P
1637404235.9,286046999.5,N
1637404255.7,286046999.5,N
1637404275.5,286047000.9,N
1637404295.4,286046998.6,N
1637404315.2,286046998.4,N
1637404335.0,286046996.9,N
1637404336.0,286046996.9,N
1637404355.8,286046999.6,N
1637404375.6,286046996.6,N
1637404395.5,286046997.0,N
1637404415.3,286046999.5,N
1637404435.1,286046999.1,N
1637404455.9,286046999.5,N
1637404475.7,286047000.6,N
1637404495.5,286047000.6,N
1637404515.4,286047001.0,N
1637404535.2,286047000.3,N
1637404555.1,286047002.6,N
1637404556.0,286047002.6,N
1637404575.8,286047002.5,N
1637404595.6,286047002.2,N
1637404615.5,286047001.8,N
1637404635.3,286047004.4,N
1637404655.1,286047004.1,N
1637404675.9,286047002.6,N
1637404695.7,286047002.8,N
1637404715.6,286047002.6,N
1637404735.4,286046999.9,N
1637404755.2,286046999.7,N
1637404775.1,286047002.8,N
1637404776.0,286047002.8,N
1637404795.8,286047000.4,N
1637404815.6,286047001.6,N
1637404835.5,286047002.1,N
1637404855.3,286047002.7,N
1637404875.2,286047002.0,N
1637404895.9,286047001.4,N
1637404915.7,286047001.7,N
1637404935.6,286047005.8,Y
1637404955.4,286047005.9,P
1637404975.2,286047005.3,N
1637404995.1,286047005.4,N
1637404996.0,286047005.4,N
1637405015.8,286047003.7,N
1637405035.7,286047004.0,N
1637405055.5,286047002.0,N
1637405075.3,286047002.3,N
1637405095.2,286047002.0,N
1637405115.0,286047004.0,N
1637405115.9,286047004.0,N
1637405135.7,286047001.8,N
1637405155.6,286047002.3,N
1637405175.4,286047001.0,N
1637405195.3,286046998.2,N
1637405215.1,286046999.2,N
1637405216.0,286046999.2,N
1637405235.8,286046997.5,N
1637405255.7,286046995.0,N
1637405275.5,286046994.9,N
1637405295.3,286046997.9,N
1637405315.2,286046996.3,N
1637405335.0,286046995.3,N
1637405335.9,286046995.3,N
1637405355.8,286046996.0,N
1637405375.6,286046994.6,N
1637405395.4,286046993.5,N
1637405415.3,286046994.4,N
1637405435.1,286046994.6,N
1637405455.9,286046994.6,N
1637405475.7,286046994.2,N
1637405495.5,286046996.4,N
1637405515.4,286046995.2,N
1637405535.2,286046995.4,N
1637405555.0,286046995.6,N
1637405555.9,286046995.6,N
1637405575.8,286046997.8,N
1637405595.6,286046999.5,N
1637405615.5,286046997.0,N
1637405635.3,286046996.7,N
1637405655.1,286046999.7,N
1637405675.9,286046999.5,N
1637405695.7,286046998.1,N
1637405715.6,286046999.3,N
1637405735.4,286046999.5,N
1637405755.2,286046996.7,N
1637405775.1,286046996.5,N
1637405776.0,286046996.5,N
1637405795.8,286046997.1,N
1637405815.6,286046997.8,N
1637405835.5,286046995.8,N
1637405855.3,286046995.4,N
1637405875.2,286046998.0,N
1637405895.9,286046995.4,N
1637405915.7,286046997.3,N
1637405935.6,286046999.2,N
1637405955.4,286046997.3,N
1637405975.2,286046999.6,N
1637405995.1,286046997.9,N
1637405996.0,286046997.9,N
